TimeCST,TemperatureF,Dew PointF,Humidity,Sea Level PressureIn,VisibilityMPH,Wind Direction,Wind SpeedMPH,Gust SpeedMPH,PrecipitationIn,Events,Conditions,WindDirDegrees,DateUTC
12:15 AM,28.4,23.0,80,29.96,10.0,Calm,Calm,-,N/A,,Clear,0,2013-01-08 06:15:00
12:35 AM,26.6,21.2,80,29.96,10.0,Calm,Calm,-,N/A,,Clear,0,2013-01-08 06:35:00
12:55 AM,28.4,24.8,86,29.96,10.0,Calm,Calm,-,N/A,,Clear,0,2013-01-08 06:55:00
1:15 AM,30.2,24.8,80,29.96,10.0,Calm,Calm,-,N/A,,Clear,0,2013-01-08 07:15:00
1:35 AM,32.0,24.8,75,29.96,10.0,Calm,Calm,-,N/A,,Clear,0,2013-01-08 07:35:00
1:55 AM,30.2,24.8,80,29.96,10.0,Calm,Calm,-,N/A,,Clear,0,2013-01-08 07:55:00
2:15 AM,30.2,24.8,80,29.96,10.0,Calm,Calm,-,N/A,,Clear,0,2013-01-08 08:15:00
2:35 AM,30.2,23.0,75,29.96,10.0,Calm,Calm,-,N/A,,Clear,0,2013-01-08 08:35:00
2:55 AM,30.2,24.8,80,29.96,10.0,Calm,Calm,-,N/A,,Clear,0,2013-01-08 08:55:00
3:15 AM,30.2,24.8,80,29.96,10.0,Calm,Calm,-,N/A,,Clear,0,2013-01-08 09:15:00
3:35 AM,30.2,23.0,75,29.95,10.0,South,3.5,-,N/A,,Clear,190,2013-01-08 09:35:00
3:55 AM,30.2,24.8,80,29.93,10.0,South,4.6,-,N/A,,Clear,190,2013-01-08 09:55:00
4:15 AM,30.2,24.8,80,29.93,10.0,SSW,4.6,-,N/A,,Clear,200,2013-01-08 10:15:00
4:35 AM,32.0,24.8,75,29.92,10.0,South,5.8,-,N/A,,Clear,190,2013-01-08 10:35:00
4:55 AM,32.0,24.8,75,29.91,10.0,South,5.8,-,N/A,,Clear,190,2013-01-08 10:55:00
5:15 AM,33.8,26.6,75,29.91,10.0,South,8.1,-,N/A,,Clear,180,2013-01-08 11:15:00
5:35 AM,33.8,26.6,75,29.91,10.0,South,8.1,-,N/A,,Clear,190,2013-01-08 11:35:00
6:15 AM,33.8,26.6,75,29.91,10.0,South,6.9,-,N/A,,Clear,180,2013-01-08 12:15:00
6:35 AM,33.8,26.6,75,29.91,10.0,South,5.8,-,N/A,,Clear,180,2013-01-08 12:35:00
6:55 AM,33.8,26.6,75,29.91,10.0,South,5.8,-,N/A,,Clear,180,2013-01-08 12:55:00
7:15 AM,33.8,26.6,75,29.92,10.0,South,5.8,-,N/A,,Clear,180,2013-01-08 13:15:00
7:35 AM,32.0,24.8,75,29.92,10.0,South,4.6,-,N/A,,Clear,180,2013-01-08 13:35:00
7:55 AM,33.8,26.6,75,29.92,10.0,South,5.8,-,N/A,,Clear,180,2013-01-08 13:55:00
8:15 AM,33.8,26.6,75,29.93,10.0,South,4.6,-,N/A,,Clear,180,2013-01-08 14:15:00
8:35 AM,32.0,26.6,80,29.92,10.0,South,4.6,-,N/A,,Clear,190,2013-01-08 14:35:00
8:55 AM,33.8,26.6,75,29.93,10.0,Calm,Calm,-,N/A,,Clear,0,2013-01-08 14:55:00
9:15 AM,37.4,28.4,70,29.94,10.0,South,6.9,-,N/A,,Clear,180,2013-01-08 15:15:00
9:35 AM,37.4,28.4,70,29.93,10.0,South,10.4,-,N/A,,Clear,190,2013-01-08 15:35:00
9:55 AM,39.2,30.2,70,29.93,10.0,South,13.8,-,N/A,,Clear,190,2013-01-08 15:55:00
10:15 AM,41.0,30.2,65,29.93,10.0,South,13.8,19.6,N/A,,Clear,190,2013-01-08 16:15:00
10:35 AM,42.8,30.2,61,29.92,10.0,South,16.1,-,N/A,,Clear,180,2013-01-08 16:35:00
10:55 AM,44.6,33.8,66,29.91,10.0,South,13.8,-,N/A,,Clear,190,2013-01-08 16:55:00
11:15 AM,46.4,33.8,62,29.90,10.0,South,17.3,20.7,N/A,,Clear,190,2013-01-08 17:15:00
11:35 AM,46.4,30.2,53,29.88,10.0,SSW,16.1,23.0,N/A,,Clear,200,2013-01-08 17:35:00
11:55 AM,48.2,32.0,54,29.87,10.0,SSW,20.7,27.6,N/A,,Clear,200,2013-01-08 17:55:00
12:15 PM,48.2,32.0,54,29.86,10.0,SSW,20.7,-,N/A,,Clear,200,2013-01-08 18:15:00
12:35 PM,50.0,32.0,50,29.85,10.0,SSW,19.6,24.2,N/A,,Clear,200,2013-01-08 18:35:00
12:55 PM,51.8,32.0,47,29.83,10.0,SSW,17.3,24.2,N/A,,Clear,200,2013-01-08 18:55:00
1:15 PM,51.8,33.8,50,29.84,10.0,SSW,19.6,25.3,N/A,,Clear,210,2013-01-08 19:15:00
1:55 PM,51.8,32.0,47,29.84,10.0,SW,18.4,26.5,N/A,,Clear,220,2013-01-08 19:55:00
2:15 PM,51.8,32.0,47,29.85,10.0,SW,19.6,24.2,N/A,,Clear,230,2013-01-08 20:15:00
2:35 PM,51.8,32.0,47,29.86,10.0,WSW,17.3,24.2,N/A,,Clear,240,2013-01-08 20:35:00
2:55 PM,51.8,32.0,47,29.87,10.0,SW,15.0,24.2,N/A,,Clear,230,2013-01-08 20:55:00
3:15 PM,51.8,33.8,50,29.89,10.0,SW,19.6,25.3,N/A,,Clear,230,2013-01-08 21:15:00
3:35 PM,50.0,32.0,50,29.90,10.0,SW,17.3,25.3,N/A,,Clear,230,2013-01-08 21:35:00
3:55 PM,48.2,32.0,54,29.90,10.0,SW,16.1,-,N/A,,Clear,230,2013-01-08 21:55:00
4:15 PM,48.2,32.0,54,29.90,10.0,SW,13.8,-,N/A,,Clear,230,2013-01-08 22:15:00
4:35 PM,46.4,32.0,57,29.91,10.0,SW,13.8,19.6,N/A,,Clear,230,2013-01-08 22:35:00
4:55 PM,46.4,30.2,53,29.93,10.0,WSW,11.5,-,N/A,,Clear,240,2013-01-08 22:55:00
5:15 PM,44.6,30.2,57,29.94,10.0,SW,9.2,-,N/A,,Clear,230,2013-01-08 23:15:00
5:35 PM,42.8,30.2,61,29.95,10.0,SW,6.9,-,N/A,,Clear,230,2013-01-08 23:35:00
5:55 PM,41.0,30.2,65,29.95,10.0,SW,4.6,-,N/A,,Clear,230,2013-01-08 23:55:00
6:15 PM,37.4,30.2,75,29.96,10.0,SW,5.8,-,N/A,,Clear,220,2013-01-09 00:15:00
6:35 PM,37.4,30.2,75,29.98,10.0,SW,4.6,-,N/A,,Clear,220,2013-01-09 00:35:00
6:55 PM,37.4,30.2,75,30.00,10.0,WSW,4.6,-,N/A,,Clear,240,2013-01-09 00:55:00
7:15 PM,39.2,30.2,70,30.01,10.0,WSW,8.1,-,N/A,,Clear,250,2013-01-09 01:15:00
7:35 PM,39.2,30.2,70,30.02,10.0,SW,9.2,-,N/A,,Scattered Clouds,230,2013-01-09 01:35:00
7:55 PM,39.2,30.2,70,30.03,10.0,SW,6.9,-,N/A,,Scattered Clouds,220,2013-01-09 01:55:00
8:15 PM,39.2,30.2,70,30.03,10.0,West,8.1,-,N/A,,Clear,270,2013-01-09 02:15:00
8:35 PM,39.2,30.2,70,30.05,10.0,West,6.9,-,N/A,,Clear,270,2013-01-09 02:35:00
8:55 PM,37.4,28.4,70,30.06,10.0,Calm,Calm,-,N/A,,Clear,0,2013-01-09 02:55:00
9:35 PM,37.4,30.2,75,30.08,10.0,Calm,Calm,-,N/A,,Clear,0,2013-01-09 03:35:00
9:55 PM,35.6,28.4,75,30.10,10.0,Calm,Calm,-,N/A,,Clear,0,2013-01-09 03:55:00
10:15 PM,37.4,28.4,70,30.11,10.0,Calm,Calm,-,N/A,,Clear,0,2013-01-09 04:15:00
10:35 PM,35.6,28.4,75,30.12,10.0,Calm,Calm,-,N/A,,Clear,0,2013-01-09 04:35:00
11:55 PM,33.8,28.4,81,30.13,10.0,Calm,Calm,-,N/A,,Clear,0,2013-01-09 05:55:00